Location: Monfort
(47.1967°N, 0.2115°W)
Time: 11:04:14
(UTC+00:00)

Cosmos 2263 Rocket - Pass Details

Date: 24 October 2020
Orbit: 822 x 850 km, 71.0° (Epoch: 27 November)

Event Time Altitude Azimuth Distance (km) Brightness Sun altitude
Rises 20:00:35 0° 335° (NNW) 3,419 5.9 -31.6°
Reaches altitude 10° 20:03:07 10° 341° (NNW) 2,483 5.0 -32.1°
Enters shadow 20:05:59 29° 356° (N) 1,526 3.6 -32.5°
